Wind_Speed
29 24 22 22 19 18 22 18 23 25 25 19 15 17 18 17 18 18 19 19 18 18 17 18 19 21 24 26 27 28 28 29 29 29 31 28 26 30 36 36 41 44 45 48
27 25 22 20 20 21 21 24 25 23 24 19 20 19 18 16 17 16 15 17 21 21 22 23 24 25 25 28 27 26 28 27 27 26 27 33 30 38 39 43 46 49 41 39
25 27 23 15 25 25 25 26 28 30 29 28 28 27 27 24 21 20 19 20 19 18 18 19 22 23 23 23 24 24 24 25 25 26 29 30 33 35 39 38 46 46 40 43
22 20 3 25 26 25 28 32 33 35 35 33 30 29 28 23 19 15 14 14 15 17 20 21 22 22 22 22 23 25 24 21 23 26 29 32 37 43 46 44 38 36 42 37
16 19 20 17 21 25 21 24 23 25 23 21 19 18 18 17 15 13 13 16 19 21 22 22 22 23 23 25 25 21 21 24 26 28 32 36 42 47 35 37 40 38 34 35
14 8 8 25 22 19 18 29 22 18 16 15 17 19 17 14 13 14 16 18 19 21 22 22 22 21 21 20 21 22 24 26 28 30 39 33 28 39 41 40 34 35 36 35
25 16 17 19 16 13 18 29 19 19 20 18 19 17 16 14 13 16 18 21 22 23 22 22 22 21 22 22 23 23 26 26 28 25 29 38 41 37 34 35 37 38 38 40
27 19 14 21 18 24 28 24 20 18 18 23 20 18 16 16 17 19 21 21 21 22 22 23 25 26 24 24 23 26 29 30 35 39 40 38 35 35 36 37 38 40 44 45
29 28 28 20 20 20 16 21 23 16 13 18 19 18 17 18 20 20 20 21 22 23 26 27 27 27 25 27 28 30 34 33 31 33 31 34 34 34 37 39 43 46 48 50
32 33 31 28 28 26 25 20 21 17 13 16 17 17 18 20 20 21 22 23 24 26 27 27 23 26 29 30 34 31 28 27 29 30 31 33 36 38 42 44 47 50 53 55
35 33 29 31 28 25 21 20 19 17 16 16 17 18 20 21 22 24 24 24 26 27 26 23 27 29 31 27 23 24 26 27 28 31 34 36 38 41 44 46 50 53 55 57
35 28 28 31 24 21 21 20 18 18 18 18 20 21 23 24 25 25 25 25 25 26 27 28 28 24 22 23 24 25 26 28 31 33 36 39 43 45 47 50 52 54 56 58
33 36 34 25 21 19 19 19 20 21 22 23 24 25 26 26 26 25 25 26 27 27 26 22 21 22 23 23 24 26 29 32 34 37 40 44 47 50 54 54 55 55 54 52
34 31 30 27 22 21 22 22 22 23 25 27 28 27 28 27 26 26 26 26 26 23 21 20 21 21 22 24 27 29 32 35 38 40 44 47 50 53 56 58 58 55 49 46
36 29 30 27 23 23 23 23 24 26 28 29 29 29 27 26 26 25 24 21 19 19 19 19 20 22 25 27 29 32 34 36 39 42 45 49 51 53 53 52 51 50 48 46
24 30 28 27 26 24 24 24 25 28 29 29 28 26 26 24 23 22 19 18 16 17 18 21 23 26 27 29 31 33 36 39 42 44 47 50 51 50 49 48 47 47 46 45
22 25 27 26 25 24 26 26 27 28 27 28 27 25 24 22 20 18 16 16 17 18 21 23 25 28 30 31 33 36 38 40 43 46 47 48 49 48 46 46 45 44 42 41
27 28 25 23 22 23 25 26 27 28 27 25 24 24 22 18 17 19 18 16 18 20 23 25 28 30 31 34 36 38 39 42 44 46 47 47 46 45 44 43 42 40 38 36
25 24 30 28 28 27 27 23 22 20 22 23 23 21 20 20 18 15 14 16 21 23 25 28 29 31 34 36 37 38 40 42 44 46 46 45 44 42 42 41 39 37 36 35
29 32 29 25 22 18 17 17 19 20 23 25 22 19 17 14 12 12 17 22 24 26 27 29 31 34 36 37 37 39 41 43 44 45 45 44 42 40 39 37 36 34 33 33
24 23 18 16 17 19 18 18 19 22 21 17 15 13 12 10 12 18 22 24 26 27 28 31 34 36 37 37 38 40 42 44 44 44 44 42 40 38 37 35 33 32 31 31
16 17 19 17 12 12 12 15 16 15 15 14 12 10 10 14 19 22 24 26 27 29 31 34 36 36 37 38 39 41 43 44 44 43 42 39 38 36 34 33 32 32 32 32
14 11 9 10 12 13 11 13 14 13 12 9 9 12 16 20 22 24 26 28 29 32 33 35 37 37 38 39 40 42 43 43 42 40 39 37 36 34 33 32 33 33 33 34
5 5 9 11 12 12 12 12 12 10 9 10 13 18 20 22 24 26 28 30 32 34 36 38 38 39 40 40 41 42 42 42 40 37 36 35 34 33 32 33 34 35 35 35
3 7 9 10 10 11 11 10 10 10 12 15 19 21 23 25 27 29 30 32 34 37 39 40 40 41 41 41 41 41 40 39 37 35 34 33 31 31 32 33 35 37 37 36
6 7 7 9 10 10 12 13 14 16 17 20 23 25 27 29 30 31 33 35 38 40 42 42 42 42 41 41 39 38 37 37 36 34 32 31 30 30 31 33 35 35 34 33
3 5 7 9 13 16 19 20 21 22 23 25 27 29 31 32 33 35 37 39 41 42 43 42 41 41 40 39 37 36 35 35 34 32 31 30 29 30 31 33 34 33 32 31
Wind_Direction
246 245 248 246 266 263 236 252 251 268 270 283 288 277 273 273 281 280 278 252 253 261 263 265 269 274 276 279 283 283 282 283 282 287 274 296 297 289 297 284 281 301 306 300
238 231 235 237 252 254 258 259 265 264 260 267 283 282 278 275 277 277 270 254 252 253 251 257 264 271 270 272 273 274 277 283 285 286 291 298 292 289 283 291 296 289 281 292
224 235 233 235 244 249 261 264 267 260 270 276 279 278 283 283 265 256 253 254 256 251 256 264 273 276 275 274 273 275 282 287 291 292 290 294 289 273 292 292 298 287 299 310
226 215 213 251 254 259 265 265 265 269 275 280 279 274 270 254 239 233 238 247 260 269 274 275 274 276 277 278 279 285 289 285 288 286 288 288 279 284 281 271 293 299 305 304
217 218 241 241 254 272 272 281 273 274 275 269 262 254 241 239 241 252 267 275 277 278 280 283 283 283 281 282 283 280 282 283 288 284 284 282 279 286 288 300 302 302 301 300
215 216 212 268 274 268 257 262 267 271 269 255 246 231 233 241 261 269 277 284 288 290 291 290 288 287 284 282 282 282 288 289 289 294 288 284 294 297 298 302 301 301 301 299
227 238 252 257 257 252 228 269 273 280 266 245 232 232 239 255 263 277 288 294 296 297 295 294 293 294 292 294 296 296 300 308 280 286 288 295 300 300 301 302 301 301 302 302
226 232 251 252 246 246 278 275 272 272 255 239 234 242 253 260 277 289 293 297 296 294 294 296 297 296 296 300 299 300 300 292 291 290 294 298 301 303 304 304 304 304 303 303
235 244 250 256 266 275 265 270 264 259 236 237 239 246 253 273 286 292 298 297 294 293 293 294 297 303 301 299 297 294 292 293 295 296 298 300 302 304 305 305 305 304 303 302
243 250 253 258 269 270 270 258 250 250 230 229 234 243 268 283 286 293 297 294 290 290 291 298 291 288 291 292 293 297 298 297 298 300 303 305 306 306 306 306 305 304 303 301
246 250 252 262 265 260 250 240 237 235 237 240 243 261 276 282 285 290 293 289 287 286 284 284 285 288 290 296 298 297 297 299 303 305 305 305 305 305 305 305 304 304 303 303
254 257 267 272 267 256 243 234 239 243 246 250 256 267 275 282 285 287 286 281 277 277 280 283 286 291 294 297 299 301 303 304 304 303 304 305 306 306 306 306 306 304 303 302
280 269 253 260 251 242 234 239 242 246 250 254 260 268 275 280 282 282 278 275 277 282 288 290 293 297 299 300 301 301 302 304 306 307 309 310 310 309 309 308 307 306 307 305
258 248 247 248 243 239 239 244 248 250 254 258 263 269 274 275 274 271 270 273 277 282 285 290 294 295 296 298 300 303 306 309 310 311 311 312 312 312 312 312 312 312 311 309
245 244 245 244 243 242 241 244 248 251 255 258 263 268 269 269 268 269 271 272 274 279 285 290 291 294 297 300 304 306 307 308 310 312 313 313 314 315 316 316 316 315 314 312
242 237 236 235 240 242 244 248 250 252 254 258 262 264 266 265 264 263 264 267 275 284 287 289 293 297 300 302 304 307 311 313 313 314 315 316 317 317 317 317 318 318 319 319
236 238 237 241 244 246 246 244 244 248 253 258 264 262 258 255 254 256 259 267 276 282 286 291 295 298 301 304 308 312 312 313 315 317 318 318 318 319 319 319 320 322 323 324
230 229 230 230 236 240 244 247 249 251 256 262 258 252 247 244 242 251 262 270 279 286 289 294 298 301 305 310 312 312 313 315 317 319 320 320 319 319 320 321 322 322 323 325
230 245 248 244 245 244 238 238 240 244 252 245 241 235 233 240 252 262 278 291 286 290 294 297 301 306 309 311 311 312 314 317 319 320 320 320 320 319 320 321 321 322 323 323
243 243 247 250 239 235 249 262 264 253 242 238 234 238 246 254 269 290 288 285 290 294 297 301 306 309 310 310 311 313 316 318 320 320 320 320 319 319 319 320 321 322 324 326
237 244 235 238 261 269 265 259 249 242 238 238 245 248 257 278 288 282 283 288 292 296 302 307 309 309 310 311 313 314 317 319 320 320 320 319 319 319 319 319 319 320 323 325
251 259 267 271 263 259 253 242 234 235 237 237 246 268 286 281 279 283 287 293 299 303 306 308 309 310 311 311 313 316 317 318 320 320 319 318 318 318 318 317 316 318 320 322
240 253 243 233 233 240 242 234 231 230 236 253 276 280 278 282 286 291 295 298 301 304 307 310 311 310 311 312 314 316 317 318 319 318 317 316 317 317 317 316 317 318 319 319
257 230 226 228 233 240 235 230 230 244 268 281 278 278 281 287 292 295 298 301 303 307 311 312 312 311 311 313 315 315 316 316 316 316 315 315 315 316 316 317 317 318 318 318
228 226 234 240 239 230 232 249 269 279 277 274 277 280 285 289 294 298 302 304 307 311 312 312 311 311 313 313 314 314 314 313 313 313 312 312 313 313 315 317 318 318 318 318
239 241 238 236 240 256 274 279 277 275 276 279 281 282 286 293 297 300 303 306 308 310 310 311 311 311 311 311 312 312 311 311 311 312 311 310 311 312 315 318 320 321 322 322
232 248 255 265 280 281 276 274 274 274 278 281 282 283 288 293 296 299 302 306 308 308 308 309 309 309 309 309 309 308 308 309 309 309 308 308 309 313 317 321 322 323 324 325
Height
3071 3073 3074 3076 3077 3076 3076 3078 3077 3078 3078 3080 3080 3080 3081 3081 3081 3081 3080 3081 3082 3082 3082 3083 3083 3084 3083 3082 3080 3080 3079 3078 3077 3075 3074 3069 3070 3069 3065 3062 3059 3057 3055 3050
3066 3068 3069 3071 3073 3074 3073 3073 3072 3073 3072 3076 3076 3076 3077 3076 3076 3076 3076 3075 3076 3076 3076 3076 3077 3076 3077 3076 3075 3074 3073 3070 3069 3067 3065 3064 3063 3060 3058 3056 3052 3049 3042 3040
3061 3063 3064 3066 3066 3068 3069 3069 3069 3067 3070 3070 3071 3071 3071 3070 3070 3070 3070 3070 3070 3071 3071 3070 3070 3069 3069 3068 3067 3066 3065 3063 3061 3060 3060 3057 3055 3052 3050 3047 3043 3039 3037 3034
3058 3059 3061 3058 3061 3063 3062 3062 3062 3061 3062 3063 3063 3063 3063 3064 3064 3064 3065 3066 3066 3066 3066 3065 3064 3063 3063 3062 3061 3060 3058 3057 3055 3054 3052 3050 3048 3044 3039 3035 3035 3033 3030 3025
3052 3053 3053 3052 3054 3057 3056 3054 3054 3055 3055 3056 3057 3057 3059 3060 3061 3061 3061 3061 3061 3061 3060 3060 3059 3058 3057 3056 3054 3053 3051 3050 3048 3047 3045 3043 3039 3035 3034 3032 3028 3024 3021 3017
3047 3048 3049 3048 3051 3050 3051 3045 3048 3050 3051 3052 3053 3054 3056 3057 3057 3057 3057 3057 3056 3055 3054 3053 3052 3051 3050 3048 3047 3046 3044 3043 3041 3039 3037 3035 3033 3030 3026 3022 3019 3016 3012 3009
3040 3042 3041 3044 3046 3047 3048 3044 3043 3045 3045 3047 3050 3053 3053 3053 3053 3053 3052 3051 3050 3049 3048 3047 3046 3045 3043 3042 3040 3039 3037 3036 3034 3032 3031 3028 3025 3021 3018 3014 3012 3009 3005 3002
3037 3037 3036 3039 3040 3042 3040 3039 3040 3040 3040 3042 3045 3047 3048 3048 3048 3048 3047 3046 3045 3043 3042 3041 3040 3039 3037 3036 3035 3033 3031 3030 3028 3026 3023 3019 3016 3013 3010 3007 3004 3000 2995 2992
3031 3029 3030 3031 3033 3034 3034 3034 3035 3036 3036 3038 3040 3042 3043 3044 3043 3042 3041 3040 3039 3038 3036 3035 3033 3032 3032 3031 3030 3027 3025 3022 3020 3018 3015 3012 3009 3006 3003 2999 2994 2989 2984 2979
3023 3023 3025 3026 3027 3028 3029 3029 3030 3031 3033 3034 3035 3037 3038 3038 3037 3036 3035 3034 3034 3032 3031 3029 3028 3027 3026 3024 3022 3019 3017 3015 3013 3011 3008 3005 3001 2997 2993 2989 2983 2977 2971 2965
3014 3016 3019 3020 3021 3022 3023 3024 3026 3027 3028 3029 3031 3032 3032 3032 3031 3030 3029 3028 3027 3026 3025 3024 3023 3021 3019 3017 3015 3014 3011 3009 3006 3003 3000 2997 2994 2989 2985 2981 2973 2964 2958 2950
3007 3012 3014 3014 3016 3016 3017 3019 3021 3023 3024 3024 3025 3026 3026 3026 3025 3025 3023 3022 3020 3019 3018 3017 3016 3014 3013 3011 3009 3007 3005 3002 2999 2996 2993 2988 2984 2979 2976 2970 2963 2954 2946 2936
3003 3004 3006 3008 3009 3009 3011 3013 3015 3017 3018 3019 3020 3020 3020 3020 3020 3018 3016 3015 3013 3012 3011 3010 3009 3007 3006 3004 3003 3001 2998 2995 2992 2987 2983 2978 2972 2966 2959 2957 2949 2941 2933 2924
2995 2997 2999 3002 3002 3004 3005 3007 3009 3011 3012 3013 3013 3014 3013 3013 3012 3011 3010 3008 3007 3006 3005 3004 3003 3002 3001 2999 2997 2994 2990 2986 2982 2977 2972 2967 2960 2953 2945 2936 2929 2925 2920 2911
2986 2989 2993 2996 2997 2998 3000 3001 3003 3004 3005 3006 3006 3006 3006 3005 3005 3004 3003 3002 3001 3001 3000 2999 2998 2997 2995 2992 2989 2986 2983 2979 2974 2968 2962 2955 2948 2940 2932 2924 2916 2909 2903 2899
2979 2983 2986 2989 2990 2991 2993 2995 2996 2997 2998 2998 2998 2998 2998 2998 2997 2997 2997 2997 2996 2996 2995 2994 2992 2990 2988 2985 2982 2978 2973 2968 2963 2957 2951 2944 2936 2928 2921 2913 2905 2898 2890 2883
2974 2978 2981 2982 2983 2984 2986 2988 2988 2989 2990 2990 2990 2991 2991 2990 2991 2991 2991 2991 2991 2990 2990 2988 2986 2983 2980 2977 2973 2969 2964 2959 2953 2947 2940 2933 2925 2917 2910 2902 2895 2888 2881 2874
2971 2972 2973 2974 2975 2977 2979 2979 2979 2980 2980 2981 2983 2983 2983 2984 2985 2985 2985 2984 2984 2984 2983 2981 2979 2975 2972 2968 2964 2959 2954 2949 2943 2936 2929 2922 2914 2907 2900 2893 2886 2880 2874 2869
2963 2966 2968 2969 2969 2968 2967 2967 2968 2968 2971 2973 2974 2975 2976 2978 2978 2979 2979 2979 2979 2978 2976 2974 2970 2967 2963 2959 2954 2950 2945 2939 2932 2925 2918 2911 2905 2897 2891 2885 2879 2873 2867 2861
2956 2958 2960 2962 2961 2960 2961 2962 2964 2965 2966 2966 2967 2970 2972 2973 2973 2974 2974 2974 2973 2971 2968 2965 2962 2958 2954 2950 2945 2940 2934 2928 2922 2915 2908 2902 2896 2889 2883 2877 2871 2866 2861 2855
2950 2952 2953 2953 2954 2955 2955 2956 2959 2960 2961 2963 2965 2966 2967 2968 2969 2969 2968 2967 2965 2963 2960 2957 2953 2949 2944 2940 2935 2929 2923 2917 2911 2905 2899 2893 2887 2881 2875 2870 2865 2859 2854 2849
2946 2948 2948 2949 2950 2952 2952 2953 2956 2958 2960 2960 2961 2962 2963 2964 2964 2963 2961 2960 2957 2955 2952 2948 2944 2940 2935 2930 2925 2919 2913 2907 2901 2895 2890 2884 2879 2873 2868 2863 2858 2853 2847 2842
2944 2945 2946 2947 2948 2950 2951 2953 2954 2956 2957 2957 2958 2959 2959 2959 2958 2956 2954 2952 2949 2946 2943 2939 2934 2930 2925 2919 2914 2908 2902 2897 2891 2886 2881 2875 2870 2865 2860 2855 2850 2845 2840 2835
2942 2943 2945 2946 2947 2948 2950 2951 2953 2953 2954 2954 2955 2955 2954 2953 2951 2949 2947 2943 2940 2937 2933 2929 2924 2919 2913 2908 2903 2897 2892 2887 2882 2877 2872 2867 2863 2858 2853 2848 2843 2838 2832 2827
2941 2943 2944 2945 2946 2947 2948 2949 2949 2950 2950 2950 2950 2949 2947 2946 2944 2940 2937 2934 2930 2927 2922 2918 2913 2907 2902 2897 2892 2887 2883 2878 2873 2869 2864 2860 2855 2851 2846 2841 2835 2830 2824 2819
2941 2942 2943 2944 2945 2945 2946 2946 2946 2946 2945 2944 2943 2941 2939 2936 2934 2931 2927 2924 2920 2916 2911 2906 2902 2897 2892 2888 2883 2878 2873 2869 2864 2860 2856 2852 2848 2843 2839 2834 2828 2822 2816 2811
2940 2942 2943 2943 2943 2943 2942 2941 2940 2939 2938 2936 2934 2932 2929 2926 2923 2920 2917 2913 2909 2905 2900 2896 2891 2887 2882 2878 2873 2869 2864 2860 2856 2852 2848 2844 2840 2836 2831 2826 2820 2815 2809 2804